GSAT0101 (GALILEO-PFM)

Last updated on Thu Nov 21 2024 00:02:30 GMT+0000 (Coordinated Universal Time)

1 37846U 11060A 24323.99506832 -.00000094 00000+0 00000+0 0 9994 2 37846 57.1207 357.3471 0002037 303.8025 56.2306 1.70475728 81445
UTC large
Height (km)
Speed (km/s)
/
Latitude / Longitude
Inclination (degrees)
Orbital Period (minutes)
Azimuth
Elevation
Range (km)
Doppler Factor

Next 0 passes for location: London (51.5072 / 0.1276)

Sorry there are no passes over London.